CW5039 Weather Reports


Display with metric or nautical units.
time (UTC)temp
F
wind
direction
speed
MPH
gust
MPH
rain 1hr
in
rain 24hr
in
rain mn
in
humidity
%
barometer
mb
20260507190906 54 63 3.0 5.0 0.00 0.00 0.00 94 1016.8
20260507190407 55 63 3.0 3.0 0.00 0.00 0.00 94 1016.8
20260507185905 56 63 3.0 3.0 0.00 0.00 0.00 94 1016.9
20260507184906 56 62 2.0 3.0 0.00 0.00 0.00 94 1016.9
20260507184406 55 61 1.0 3.0 0.00 0.00 0.00 94 1016.9
20260507183905 55 65 2.0 3.0 0.00 0.00 0.00 94 1017.1
20260507183406 55 72 4.0 6.0 0.00 0.00 0.00 94 1017.0
20260507182407 56 89 5.0 5.0 0.00 0.00 0.00 94 1017.0
20260507180906 56 88 2.0 3.0 0.00 0.00 0.00 94 1017.0
20260507175905 56 86 2.0 3.0 0.00 0.00 0.00 94 1017.1
20260507175406 56 86 2.0 3.0 0.00 0.00 0.00 94 1017.1
20260507174907 56 86 3.0 3.0 0.00 0.00 0.00 94 1017.1
20260507173406 55 76 3.0 5.0 0.00 0.00 0.00 94 1017.2
20260507172906 55 71 4.0 5.0 0.00 0.00 0.00 94 1017.2
20260507171906 55 64 5.0 6.0 0.00 0.00 0.00 93 1017.2
20260507170906 56 57 6.0 7.0 0.00 0.00 0.00 94 1017.4
20260507170406 56 66 6.0 9.0 0.00 0.00 0.00 94 1017.5
20260507164907 56 70 4.0 6.0 0.00 0.00 0.00 93 1017.6
20260507163906 57 77 3.0 3.0 0.00 0.00 0.00 94 1017.7
20260507162906 56 77 1.0 3.0 0.00 0.00 0.00 94 1017.7
20260507160906 57 66 1.0 2.0 0.00 0.00 0.00 93 1017.7
20260507160405 57 66 2.0 3.0 0.00 0.00 0.00 93 1017.8
20260507153906 58 71 8.0 10.0 0.00 0.00 0.00 93 1017.9
20260507152905 58 68 7.0 9.0 0.00 0.00 0.00 93 1018.1
20260507152406 57 64 6.0 9.0 0.00 0.00 0.00 94 1018.2
20260507151907 57 62 7.0 10.0 0.00 0.00 0.00 93 1018.3
20260507151406 57 62 7.0 9.0 0.00 0.00 0.00 93 1018.4
20260507150406 56 69 6.0 7.0 0.00 0.00 0.00 93 1018.6
20260507143906 56 42 3.0 3.0 0.00 0.00 0.00 92 1019.1
20260507141906 56 44 5.0 6.0 0.00 0.00 0.00 92 1019.3
20260507141406 56 45 5.0 7.0 0.00 0.00 0.00 92 1019.3
20260507140406 57 63 5.0 6.0 0.00 0.00 0.00 92 1019.3
20260507135906 56 64 4.0 6.0 0.00 0.00 0.00 92 1019.4
20260507134906 57 24 1.0 1.0 0.00 0.00 0.00 92 1019.6
20260507134406 57 24 1.0 2.0 0.00 0.00 0.00 92 1019.6
20260507132407 57 24 1.0 2.0 0.00 0.00 0.00 90 1019.8
20260507131906 57 24 0.0 1.0 0.00 0.00 0.00 90 1019.7
20260507131406 58 24 1.0 3.0 0.00 0.00 0.00 90 1019.7
20260507130406 58 45 5.0 6.0 0.00 0.00 0.00 91 1019.7
20260507125906 59 45 4.0 9.0 0.00 0.00 0.00 91 1019.7
20260507124905 58 54 5.0 7.0 0.00 0.00 0.00 90 1019.8
20260507123406 59 48 5.0 7.0 0.00 0.00 0.00 90 1020.0
20260507122906 59 46 5.0 5.0 0.00 0.00 0.00 90 1020.0
20260507121906 59 55 5.0 6.0 0.00 0.00 0.00 89 1020.2
20260507121406 59 54 4.0 7.0 0.00 0.00 0.00 89 1020.2
20260507120406 59 47 5.0 9.0 0.00 0.00 0.00 90 1020.3
20260507115905 59 50 6.0 8.0 0.00 0.00 0.00 89 1020.3
20260507113906 59 57 7.0 10.0 0.00 0.00 0.00 90 1020.5
20260507112906 58 57 6.0 7.0 0.00 0.00 0.00 90 1020.7
20260507111906 59 65 5.0 6.0 0.00 0.00 0.00 89 1020.8
20260507110906 59 65 5.0 6.0 0.00 0.00 0.00 90 1020.8
20260507110406 59 22 2.0 3.0 0.00 0.00 0.00 90 1020.9
20260507105905 59 311 0.0 0.0 0.00 0.00 0.00 90 1021.0
20260507105406 58 302 0.0 0.0 0.00 0.00 0.00 90 1021.2
20260507103406 58 302 0.0 0.0 0.00 0.00 0.00 90 1021.2
20260507102905 58 302 0.0 0.0 0.00 0.00 0.00 89 1021.3
20260507101905 58 302 0.0 0.0 0.00 0.00 0.00 89 1021.2
20260507101405 58 302 0.0 0.0 0.00 0.00 0.00 89 1021.2
20260507095905 59 301 2.0 5.0 0.00 0.00 0.00 87 1021.2
20260507094905 60 78 5.0 6.0 0.00 0.00 0.00 87 1020.9
20260507093905 60 85 5.0 7.0 0.00 0.00 0.00 86 1020.8
20260507093405 60 85 6.0 9.0 0.00 0.00 0.00 86 1020.8
20260507092405 60 76 6.0 10.0 0.00 0.00 0.00 86 1020.7
20260507090904 60 69 9.0 12.0 0.00 0.00 0.00 87 1020.4
20260507090406 60 73 10.0 12.0 0.00 0.00 0.00 87 1020.4
20260507085905 60 71 9.0 13.0 0.00 0.00 0.00 87 1020.4
20260507085405 60 68 10.0 14.0 0.00 0.00 0.00 87 1020.5
20260507084906 60 64 10.0 15.0 0.00 0.00 0.00 87 1020.6
20260507083905 60 63 10.0 13.0 0.00 0.00 0.00 87 1020.6
20260507083406 60 64 9.0 13.0 0.00 0.00 0.00 87 1020.7
20260507082905 60 61 8.0 12.0 0.00 0.00 0.00 87 1020.8
20260507081906 61 64 9.0 12.0 0.00 0.00 0.00 87 1020.8
20260507081406 61 59 11.0 13.0 0.00 0.00 0.00 87 1020.8
20260507080905 61 53 10.0 14.0 0.00 0.00 0.00 87 1020.9
20260507080405 61 51 9.0 12.0 0.00 0.00 0.00 88 1021.1
20260507075905 61 43 9.0 12.0 0.00 0.00 0.00 88 1021.2
20260507075405 60 44 9.0 12.0 0.00 0.00 0.00 88 1021.2
20260507074406 60 43 9.0 12.0 0.00 0.00 0.00 89 1021.3
20260507073406 59 34 7.0 10.0 0.00 0.00 0.00 90 1021.3
20260507072906 59 37 8.0 10.0 0.00 0.00 0.00 89 1021.2
20260507072405 59 35 8.0 10.0 0.00 0.00 0.00 89 1021.2
20260507071907 59 44 7.0 10.0 0.00 0.00 0.00 89 1021.2
20260507071406 59 45 7.0 10.0 0.00 0.00 0.00 89 1021.2
20260507070406 58 47 7.0 12.0 0.00 0.00 0.00 89 1021.1
20260507065905 58 38 6.0 9.0 0.00 0.00 0.00 89 1021.2
20260507065405 58 31 5.0 6.0 0.00 0.00 0.00 88 1021.1
20260507062904 59 45 5.0 6.0 0.00 0.00 0.00 86 1021.1
20260507061905 60 27 5.0 6.0 0.00 0.00 0.00 86 1021.1
20260507061406 61 28 6.0 7.0 0.00 0.00 0.00 86 1020.9
20260507055905 61 30 6.0 7.0 0.00 0.00 0.00 83 1020.9
20260507054905 62 36 7.0 9.0 0.00 0.00 0.00 82 1020.8
20260507053905 64 32 7.0 10.0 0.00 0.00 0.00 80 1020.8
20260507051405 66 355 8.0 12.0 0.00 0.00 0.00 77 1021.2
20260507045906 66 350 9.0 12.0 0.00 0.00 0.00 75 1021.3
20260507045405 67 3 7.0 12.0 0.00 0.00 0.00 74 1021.2
20260507043405 68 8 9.0 15.0 0.00 0.00 0.00 72 1021.3
20260507041905 70 8 7.0 12.0 0.00 0.00 0.00 69 1021.4
20260507040405 71 0 9.0 12.0 0.00 0.00 0.00 72 1021.3
20260507035905 70 13 8.0 12.0 0.00 0.00 0.00 73 1021.3
20260507035405 69 10 6.0 12.0 0.00 0.00 0.00 72 1021.3
20260507034406 69 8 8.0 13.0 0.00 0.00 0.00 72 1021.4
20260507033404 70 10 11.0 16.0 0.00 0.00 0.00 72 1021.5
20260507031904 71 357 10.0 14.0 0.00 0.00 0.00 70 1021.7
20260507031406 70 14 12.0 16.0 0.00 0.00 0.00 71 1021.8
20260507030905 69 7 13.0 17.0 0.00 0.00 0.00 71 1021.8
20260507030405 70 352 13.0 18.0 0.00 0.00 0.00 71 1021.8
20260507025905 70 354 12.0 17.0 0.00 0.00 0.00 71 1021.8
20260507025405 70 18 9.0 14.0 0.00 0.00 0.00 71 1021.9
20260507022905 70 3 11.0 20.0 0.00 0.00 0.00 69 1022.1
20260507021905 70 350 14.0 20.0 0.00 0.00 0.00 70 1022.1
20260507021405 70 354 10.0 16.0 0.00 0.00 0.00 70 1022.1
20260507020904 70 353 13.0 18.0 0.00 0.00 0.00 70 1022.1
20260507015904 71 359 15.0 18.0 0.00 0.00 0.00 68 1022.2
20260507014405 72 0 15.0 20.0 0.00 0.00 0.00 67 1022.3
20260507013906 71 9 12.0 17.0 0.00 0.00 0.00 68 1022.4
20260507013405 72 354 12.0 20.0 0.00 0.00 0.00 67 1022.4
20260507012906 72 355 13.0 18.0 0.00 0.00 0.00 66 1022.5
20260507012406 72 352 13.0 16.0 0.00 0.00 0.00 67 1022.6
20260507011905 71 347 14.0 17.0 0.00 0.00 0.00 71 1022.6
20260507010905 71 353 10.0 17.0 0.00 0.00 0.00 69 1022.7
20260507010405 72 356 12.0 16.0 0.00 0.00 0.00 70 1022.7
20260507005905 72 15 11.0 17.0 0.00 0.00 0.00 72 1022.8
20260507005404 71 10 9.0 17.0 0.00 0.00 0.00 72 1022.9
20260507003904 69 17 9.0 15.0 0.00 0.00 0.00 77 1022.8
20260507003405 70 26 12.0 16.0 0.00 0.00 0.00 76 1022.9
20260507002405 70 358 11.0 14.0 0.00 0.00 0.00 74 1022.9
20260507001905 71 14 11.0 15.0 0.00 0.00 0.00 74 1022.9
20260507001405 70 17 12.0 16.0 0.00 0.00 0.00 74 1023.0
20260506235905 69 7 8.0 12.0 0.00 0.00 0.00 79 1023.3
20260506234905 68 19 6.0 12.0 0.00 0.00 0.00 81 1023.5
20260506233905 69 40 9.0 15.0 0.00 0.00 0.00 81 1023.5
20260506233405 68 42 13.0 16.0 0.00 0.00 0.00 81 1023.5
20260506230904 69 33 14.0 18.0 0.00 0.00 0.00 79 1023.6
20260506225904 69 40 14.0 18.0 0.00 0.00 0.00 79 1023.6
20260506224404 69 38 12.0 16.0 0.00 0.00 0.00 78 1023.7
20260506223904 69 45 12.0 16.0 0.00 0.00 0.00 78 1023.8
20260506222904 69 36 9.0 12.0 0.00 0.00 0.00 77 1023.9
20260506220904 68 40 6.0 7.0 0.00 0.00 0.00 84 1024.0
20260506220405 67 46 5.0 6.0 0.00 0.00 0.00 85 1024.2
20260506215404 66 49 2.0 3.0 0.00 0.00 0.00 87 1024.3
20260506214405 66 45 2.0 3.0 0.00 0.00 0.00 89 1024.5
20260506213905 65 13 1.0 2.0 0.00 0.00 0.00 90 1024.5
20260506213405 65 12 1.0 3.0 0.00 0.00 0.00 91 1024.5
20260506212404 64 279 0.0 0.0 0.00 0.00 0.00 94 1024.6
20260506211904 63 278 0.0 0.0 0.00 0.00 0.00 94 1024.6
20260506211404 62 277 0.0 0.0 0.00 0.00 0.00 94 1024.8
20260506210904 62 277 0.0 0.0 0.00 0.00 0.00 95 1024.8
20260506205906 61 271 0.0 2.0 0.00 0.00 0.00 95 1025.0
20260506204905 61 160 0.0 1.0 0.00 0.00 0.00 95 1024.9
20260506204405 60 142 0.0 1.0 0.00 0.00 0.00 95 1024.9
20260506202905 58 203 0.0 0.0 0.00 0.00 0.00 95 1024.9
20260506202404 58 205 0.0 0.0 0.00 0.00 0.00 95 1024.9
20260506201905 58 205 0.0 0.0 0.00 0.00 0.00 95 1024.9